This is the latest recevied weather packets stored in our database for station/object MS0SIA-10. If no packets are shown the sender has not sent any weather packets the latest 1 day(s).
| Time | Temp. | Humidity | Pressure | Rain* | Wind** | Luminosity | Snow |
|---|---|---|---|---|---|---|---|
| 1777908161 | 13.33° C | 100% | 1040.2 hPa | - | - | - | - |
| 1777907261 | 12.22° C | 100% | 1040.7 hPa | - | - | - | - |
| 1777905457 | 12.22° C | 100% | 1040.5 hPa | - | - | - | - |
| 1777904557 | 12.22° C | 100% | 1040.5 hPa | - | - | - | - |
| 1777903657 | 12.22° C | 100% | 1040.5 hPa | - | - | - | - |
| 1777902757 | 11.67° C | 100% | 1040.5 hPa | - | - | - | - |
| 1777901857 | 11.67° C | 100% | 1040.4 hPa | - | - | - | - |
| 1777900957 | 11.67° C | 100% | 1040.3 hPa | - | - | - | - |
| 1777900057 | 11.67° C | 100% | 1040.3 hPa | - | - | - | - |
| 1777899156 | 11.67° C | 100% | 1040.2 hPa | - | - | - | - |
| 1777898256 | 11.67° C | 100% | 1040.3 hPa | - | - | - | - |
| 1777897356 | 11.67° C | 100% | 1040 hPa | - | - | - | - |
| 1777896456 | 11.67° C | 100% | 1040.1 hPa | - | - | - | - |
| 1777895556 | 11.11° C | 100% | 1039.9 hPa | - | - | - | - |
| 1777894656 | 11.11° C | 100% | 1039.9 hPa | - | - | - | - |
| 1777893756 | 11.11° C | 100% | 1040 hPa | - | - | - | - |
| 1777892860 | 11.11° C | 100% | 1039.8 hPa | - | - | - | - |
| 1777891941 | 11.11° C | 100% | 1039.8 hPa | - | - | - | - |
| 1777891001 | 10.56° C | 100% | 1039.7 hPa | - | - | - | - |
| 1777890059 | 11.11° C | 100% | 1039.8 hPa | - | - | - | - |
| 1777889154 | 10.56° C | 100% | 1040 hPa | - | - | - | - |
| 1777888224 | 11.11° C | 100% | 1039.8 hPa | - | - | - | - |
| 1777887324 | 10.56° C | 100% | 1039.9 hPa | - | - | - | - |
| 1777885524 | 10.56° C | 100% | 1040 hPa | - | - | - | - |
| 1777884624 | 10.56° C | 100% | 1039.8 hPa | - | - | - | - |
* Rain since midnight (hover to see other rain measurements)
** Current wind speed in m/s (hover to see current wind gust speed)